# Mixing ratio of CO2 (xCO2) in dry air measured onboard R/V Mirai (NODC Code: unknown) of the Japan Marine Science and Technology Center (JAMSTEC).,,,,,,,,,,,,,,,,,,,,,,
"# Ver. 3.0; August, 2005.  Flag on xCO2_sea in MR99K6 bewteen 19991015 through 19991017  10:29 were flagged = 4 due to contamination of room-air.",,,,,,,,,,,,,,,,,,,,,,
# Measured by Meteorological Research Institute. ,,,,,,,,,,,,,,,,,,,,,,
# PI : M. Ishii,,,,,,,,,,,,,,,,,,,,,,
# Concetrarion scale = MRI87,,,,,,,,,,,,,,,,,,,,,,
# Date and Time = UTC,,,,,,,,,,,,,,,,,,,,,,
"# Quality flag (F); good=2, questionable=3, bad =4, not reported = 5, no data =9",,,,,,,,,,,,,,,,,,,,,,
# Data and Cruise Report: http://www.jamstec.go.jp/mirai/track_line/MR99-K06.html,,,,,,,,,,,,,,,,,,,,,,
# Underway DIC data also available from the website,,,,,,,,,,,,,,,,,,,,,,
Ship,Cruise,Serial No.,Date,,,Time,,Latitude,Longitude,xCO2_Air,F,xCO2_Sea,F,Wind_Dir,Wind_Spd,Atm_Prs,Atm_Tmp.,SST,F,SSS,F,pH2O
,,,Year,Month,Day,Hour,Min.,Deg.,Deg.,ppm,,ppm,,Deg.,m/s,hPa,deg.C,deg.C,,,,hPa
Mirai,MR99K6,1,1999,10,15,11,8,33.2575,143.0452,-9.99,9,492.85,4,253,9.5,1013.2,25.7,26.73,2,34.064,2,34.42
Mirai,MR99K6,2,1999,10,15,11,20,33.2109,143.0488,-9.99,9,502.91,4,253,8.8,1013.4,25.6,26.54,2,34.013,2,34.03
Mirai,MR99K6,3,1999,10,15,11,26,33.1866,143.0494,368.4,2,-9.99,9,251,8.4,1013.4,25.6,26.53,2,33.978,2,34.02
Mirai,MR99K6,4,1999,10,15,11,32,33.1636,143.0503,367.86,2,-9.99,9,250,8.7,1013.6,25.6,26.61,2,34.009,2,34.18
Mirai,MR99K6,5,1999,10,15,11,47,33.1098,143.054,-9.99,9,514.12,4,254,9.2,1013.2,25.6,26.66,2,34.04,2,34.29
Mirai,MR99K6,6,1999,10,15,11,59,33.0644,143.0579,-9.99,9,498.75,4,255,9.2,1013.6,25.6,26.54,2,34.061,2,34.03
Mirai,MR99K6,7,1999,10,15,12,38,32.9117,143.072,-9.99,9,483.4,4,255,9,1013.4,25.8,26.76,2,34.056,2,34.48
Mirai,MR99K6,8,1999,10,15,12,50,32.8649,143.0769,-9.99,9,495.96,4,257,9,1013.4,26,27.4,2,34.018,2,35.81
Mirai,MR99K6,9,1999,10,15,12,56,32.8401,143.0795,366.81,2,-9.99,9,259,9.1,1013.4,26.2,27.54,2,33.961,2,36.09
Mirai,MR99K6,10,1999,10,15,13,2,32.8165,143.0813,366.62,2,-9.99,9,260,9.1,1013.2,26.3,27.59,2,33.907,2,36.2
Mirai,MR99K6,11,1999,10,15,13,17,32.7606,143.0842,-9.99,9,495.47,4,260,9,1013.3,26.5,27.63,2,33.899,2,36.28
Mirai,MR99K6,12,1999,10,15,13,29,32.7126,143.0867,-9.99,9,487.44,4,257,9.2,1013.3,26.5,27.77,2,33.957,2,36.58
Mirai,MR99K6,13,1999,10,15,14,8,32.554,143.0894,-9.99,9,481.24,4,255,9.5,1013.1,26.6,27.8,2,33.934,2,36.65
Mirai,MR99K6,14,1999,10,15,14,20,32.5045,143.0922,-9.99,9,484.86,4,254,9.2,1013,26.6,27.83,2,33.936,2,36.71
Mirai,MR99K6,15,1999,10,15,14,26,32.478,143.0935,366.61,2,-9.99,9,256,9.1,1012.9,26.5,27.85,2,33.943,2,36.75
Mirai,MR99K6,16,1999,10,15,14,32,32.4528,143.0945,366.47,2,-9.99,9,256,9.2,1013.2,26.5,27.84,2,33.95,2,36.73
Mirai,MR99K6,17,1999,10,15,14,47,32.3934,143.0989,-9.99,9,471.73,4,254,9.3,1013.3,26.5,27.71,2,33.973,2,36.45
Mirai,MR99K6,18,1999,10,15,14,59,32.3427,143.102,-9.99,9,482.2,4,253,9.1,1013.5,26.6,27.7,2,34.001,2,36.43
Mirai,MR99K6,19,1999,10,15,15,38,32.1744,143.1125,-9.99,9,464.35,4,253,9.2,1013.5,26.8,27.91,2,33.975,2,36.88
Mirai,MR99K6,20,1999,10,15,15,50,32.1219,143.1147,-9.99,9,464.31,4,254,8.8,1013.5,26.8,27.9,2,33.988,2,36.86
Mirai,MR99K6,21,1999,10,15,15,56,32.0938,143.1156,366.78,2,-9.99,9,251,8.5,1013.5,26.7,27.85,2,33.997,2,36.76
Mirai,MR99K6,22,1999,10,15,16,2,32.0673,143.116,366.66,2,-9.99,9,248,8.7,1013.4,26.7,27.84,2,34.007,2,36.73
Mirai,MR99K6,23,1999,10,15,16,17,32.0039,143.1164,-9.99,9,457.38,4,248,9.3,1013.4,26.8,27.76,2,34.053,2,36.56
Mirai,MR99K6,24,1999,10,15,16,29,31.9502,143.1166,-9.99,9,458.8,4,251,9.7,1013.4,26.8,27.78,2,34.156,2,36.62
Mirai,MR99K6,25,1999,10,15,17,8,31.7785,143.1197,-9.99,9,456.93,4,251,10,1013.5,27,28.05,2,34.487,2,37.19
Mirai,MR99K6,26,1999,10,15,17,20,31.7265,143.12,-9.99,9,454.89,4,251,9.8,1013.5,27,27.91,2,34.457,2,36.88
Mirai,MR99K6,27,1999,10,15,17,26,31.6993,143.1198,366.75,2,-9.99,9,253,9.7,1013.5,27,27.83,2,34.428,2,36.71
Mirai,MR99K6,28,1999,10,15,17,32,31.6733,143.1195,366.68,2,-9.99,9,254,9.6,1013.4,26.9,27.78,2,34.418,2,36.6
Mirai,MR99K6,29,1999,10,15,17,47,31.6119,143.1187,-9.99,9,450.8,4,260,9.7,1013.5,26.8,27.7,2,34.409,2,36.43
Mirai,MR99K6,30,1999,10,15,17,59,31.5605,143.1177,-9.99,9,451.42,4,258,9.3,1013.5,26.9,27.64,2,34.428,2,36.31
Mirai,MR99K6,31,1999,10,15,18,38,31.3925,143.1165,-9.99,9,449.07,4,254,9.1,1013.6,26.7,27.65,2,34.468,2,36.32
Mirai,MR99K6,32,1999,10,15,18,50,31.3408,143.1156,-9.99,9,448.2,4,256,9.1,1013.7,26.8,27.69,2,34.498,2,36.42
Mirai,MR99K6,33,1999,10,15,18,56,31.3135,143.1155,366.76,2,-9.99,9,256,9.1,1013.6,26.8,27.7,2,34.513,2,36.44
Mirai,MR99K6,34,1999,10,15,19,2,31.2878,143.1155,366.76,2,-9.99,9,254,8.9,1013.8,26.8,27.71,2,34.509,2,36.47
Mirai,MR99K6,35,1999,10,15,19,17,31.2271,143.1179,-9.99,9,449.72,4,253,8.7,1013.8,26.8,27.76,2,34.514,2,36.56
Mirai,MR99K6,36,1999,10,15,19,29,31.1757,143.1229,-9.99,9,451.32,4,249,8.6,1013.9,26.7,27.76,2,34.486,2,36.57
Mirai,MR99K6,37,1999,10,15,20,8,31.0059,143.1409,-9.99,9,461.78,4,249,7.9,1014.4,26.8,27.96,2,34.364,2,37
Mirai,MR99K6,38,1999,10,15,20,20,30.9537,143.1464,-9.99,9,464.04,4,251,8,1014.5,26.8,27.99,2,34.389,2,37.06
Mirai,MR99K6,39,1999,10,15,20,26,30.9261,143.1491,366.76,2,-9.99,9,254,8.1,1014.6,26.8,27.99,2,34.442,2,37.06
Mirai,MR99K6,40,1999,10,15,20,32,30.9001,143.1517,366.66,2,-9.99,9,255,8,1014.5,26.8,27.98,2,34.465,2,37.03
Mirai,MR99K6,41,1999,10,15,20,47,30.8386,143.1589,-9.99,9,472.28,4,260,7.8,1014.6,26.8,27.99,2,34.483,2,37.06
Mirai,MR99K6,42,1999,10,15,20,59,30.7866,143.1653,-9.99,9,471.01,4,256,7.3,1014.8,26.8,28.04,2,34.539,2,37.16
Mirai,MR99K6,43,1999,10,15,21,38,30.6151,143.1829,-9.99,9,472.86,4,243,6.5,1015,26.9,28.18,2,34.695,2,37.47
Mirai,MR99K6,44,1999,10,15,21,50,30.5624,143.1793,-9.99,9,470.7,4,242,6.2,1015.3,27,28.18,2,34.699,2,37.46
Mirai,MR99K6,45,1999,10,15,21,56,30.5345,143.1765,366.78,2,-9.99,9,243,6.3,1015.5,27,28.22,2,34.72,2,37.56
Mirai,MR99K6,46,1999,10,15,22,2,30.5083,143.1739,366.64,2,-9.99,9,241,6.4,1015.2,27,28.27,2,34.765,2,37.66
Mirai,MR99K6,47,1999,10,15,22,17,30.4469,143.1684,-9.99,9,468.93,4,237,6.3,1015.3,27.1,28.3,2,34.811,2,37.72
Mirai,MR99K6,48,1999,10,15,22,29,30.3945,143.163,-9.99,9,488.27,4,245,6.1,1015.3,27.1,28.31,2,34.792,2,37.74
Mirai,MR99K6,49,1999,10,15,23,8,30.2231,143.1309,-9.99,9,484.83,4,241,4.8,1015.7,27.2,28.28,2,34.748,2,37.69
Mirai,MR99K6,50,1999,10,15,23,20,30.1705,143.1202,-9.99,9,462.26,4,232,4.7,1015.8,27.3,28.24,2,34.675,2,37.61
Mirai,MR99K6,51,1999,10,15,23,26,30.1427,143.1142,366.7,2,-9.99,9,232,4.5,1015.7,27.2,28.22,2,34.655,2,37.56
Mirai,MR99K6,52,1999,10,15,23,32,30.1166,143.1083,366.54,2,-9.99,9,235,4.6,1015.7,27.1,28.22,2,34.658,2,37.55
Mirai,MR99K6,53,1999,10,15,23,47,30.055,143.095,-9.99,9,474.38,4,231,4.6,1015.8,27.2,28.24,2,34.579,2,37.6
Mirai,MR99K6,54,1999,10,15,23,59,30.0025,143.0836,-9.99,9,465.55,4,235,4.7,1015.8,27.2,28.3,2,34.494,2,37.74
Mirai,MR99K6,55,1999,10,16,0,38,29.8382,143.0501,-9.99,9,438.39,4,232,4.2,1015.5,27,28.32,2,34.4775,2,37.78
Mirai,MR99K6,56,1999,10,16,0,50,29.8266,143.0493,-9.99,9,434.47,4,223,4,1015.4,26.7,28.33,2,34.455,2,37.8
Mirai,MR99K6,57,1999,10,16,0,56,29.8269,143.0503,367.17,2,-9.99,9,224,4,1015.4,26.8,28.33,2,34.452,2,37.8
Mirai,MR99K6,58,1999,10,16,1,2,29.8272,143.0508,366.85,2,-9.99,9,214,4.1,1015.4,26.7,28.32,2,34.452,2,37.78
Mirai,MR99K6,59,1999,10,16,1,17,29.8276,143.0521,-9.99,9,430.58,4,219,4.1,1015.3,26.9,28.34,2,34.451,2,37.82
Mirai,MR99K6,60,1999,10,16,1,29,29.8283,143.0529,-9.99,9,433.97,4,217,3.8,1015.3,27,28.34,2,34.451,2,37.83
Mirai,MR99K6,61,1999,10,16,2,8,29.8295,143.0551,-9.99,9,423.14,4,220,3.2,1014.9,27.1,28.37,2,34.45,2,37.89
Mirai,MR99K6,62,1999,10,16,2,20,29.8303,143.0559,-9.99,9,424.46,4,217,3.5,1014.8,27.3,28.34,2,34.445,2,37.82
Mirai,MR99K6,63,1999,10,16,2,26,29.8307,143.0563,367.69,2,-9.99,9,220,3.4,1014.7,27,28.34,2,34.444,2,37.82
Mirai,MR99K6,64,1999,10,16,2,32,29.8313,143.0569,367.94,2,-9.99,9,221,3.2,1014.6,27.6,28.39,2,34.442,2,37.94
Mirai,MR99K6,65,1999,10,16,2,47,29.8322,143.0578,-9.99,9,440.5,4,224,2.9,1014.3,27.2,28.38,2,34.443,2,37.9
Mirai,MR99K6,66,1999,10,16,2,59,29.8328,143.0585,-9.99,9,468.95,4,218,3.3,1014.3,27,28.36,2,34.444,2,37.87
Mirai,MR99K6,67,1999,10,16,3,38,29.8348,143.0619,-9.99,9,-9.99,4,225,3.2,1013.8,27.4,28.36,2,34.448,2,37.87
Mirai,MR99K6,68,1999,10,16,3,50,29.8354,143.0625,-9.99,9,448.42,4,234,3.3,1013.6,29.1,28.38,2,34.447,2,37.9
Mirai,MR99K6,69,1999,10,16,3,56,29.8361,143.0622,366.97,2,-9.99,9,227,4,1013.6,28.8,28.41,2,34.449,2,37.97
Mirai,MR99K6,70,1999,10,16,4,2,29.8372,143.0624,366.89,2,-9.99,9,221,3.9,1013.5,28.9,28.44,2,34.454,2,38.04
Mirai,MR99K6,71,1999,10,16,4,17,29.8356,143.0618,-9.99,9,418.23,4,227,3.9,1013.5,28.2,28.56,2,34.467,2,38.3
Mirai,MR99K6,72,1999,10,16,4,29,29.8042,143.0677,-9.99,9,380.53,4,235,4.6,1013.2,28,28.6,2,34.45,2,38.39
Mirai,MR99K6,73,1999,10,16,5,8,29.632,143.1023,-9.99,9,370.77,4,236,4,1013.2,27.6,28.66,2,34.188,2,38.52
Mirai,MR99K6,74,1999,10,16,5,20,29.58,143.1135,-9.99,9,366.5,4,240,3.8,1013.2,27.6,28.67,2,34.21,2,38.55
Mirai,MR99K6,75,1999,10,16,5,26,29.5526,143.1197,-9.99,9,-9.99,9,236,3.6,1013.2,27.6,28.68,2,34.221,2,38.57
Mirai,MR99K6,76,1999,10,16,5,32,29.5265,143.1253,-9.99,9,-9.99,9,241,3.7,1013.2,27.5,28.73,2,34.215,2,38.69
Mirai,MR99K6,77,1999,10,16,5,47,29.4653,143.1399,-9.99,9,366.18,4,232,3.1,1013.6,27.7,28.66,2,34.25,2,38.53
Mirai,MR99K6,78,1999,10,16,5,55,29.4454,143.1452,-9.99,9,-9.99,4,-99,-9.9,-9.9,-99.9,-9.99,9,-9.999,9,-9.9
Mirai,MR99K6,79,1999,10,16,6,38,29.3659,143.1661,-9.99,9,382.13,4,203,2.4,1013.9,27.3,28.37,2,34.354,2,37.88
Mirai,MR99K6,80,1999,10,16,6,50,29.365,143.1694,-9.99,9,382.34,4,207,2.7,1013.9,27.4,28.4,2,34.351,2,37.95
Mirai,MR99K6,81,1999,10,16,6,56,29.3643,143.1722,366.62,2,-9.99,9,194,2.9,1014,27.4,28.4,2,34.348,2,37.96
Mirai,MR99K6,82,1999,10,16,7,2,29.3637,143.1736,366.59,2,-9.99,9,207,2.8,1014,27.4,28.43,2,34.349,2,38.01
Mirai,MR99K6,83,1999,10,16,7,17,29.3618,143.1786,-9.99,9,383,5,217,2.4,1014.2,27.2,28.47,2,34.354,2,38.1
Mirai,MR99K6,84,1999,10,16,7,29,29.3483,143.1872,-9.99,9,384.5,4,207,2.6,1014.3,27.3,28.54,2,34.363,2,38.25
Mirai,MR99K6,85,1999,10,16,8,8,29.1896,143.2258,-9.99,9,370.74,4,221,2.4,1014.5,26.8,28.57,2,34.16,2,38.33
Mirai,MR99K6,86,1999,10,16,8,20,29.137,143.2374,-9.99,9,374.6,4,219,2.1,1014.6,26.8,28.65,2,34.238,2,38.5
Mirai,MR99K6,87,1999,10,16,8,26,29.1093,143.2434,366.6,2,-9.99,4,234,2.1,1014.6,26.8,28.6,2,34.259,2,38.4
Mirai,MR99K6,88,1999,10,16,8,32,29.0825,143.2492,366.54,2,-9.99,9,235,2.1,1014.7,26.8,28.63,2,34.262,2,38.45
Mirai,MR99K6,89,1999,10,16,8,47,29.0201,143.2629,-9.99,9,379.54,4,229,2.1,1014.8,26.8,28.7,2,34.322,2,38.62
Mirai,MR99K6,90,1999,10,16,8,59,28.9671,143.2741,-9.99,9,378.59,4,225,2.5,1015.1,26.7,28.63,2,34.332,2,38.47
Mirai,MR99K6,91,1999,10,16,9,38,28.7976,143.309,-9.99,9,388.8,4,220,3.2,1015.7,26.9,28.91,2,34.516,2,39.1
Mirai,MR99K6,92,1999,10,16,9,50,28.7461,143.3196,-9.99,9,387.06,4,215,3.3,1015.7,26.9,28.66,2,34.476,2,38.54
Mirai,MR99K6,93,1999,10,16,9,56,28.719,143.3257,366.98,2,-9.99,9,206,3,1015.7,26.9,28.76,2,34.464,2,38.76
Mirai,MR99K6,94,1999,10,16,10,2,28.6931,143.3318,367.07,2,-9.99,9,206,3.2,1015.8,26.9,28.72,2,34.48,2,38.66
Mirai,MR99K6,95,1999,10,16,10,17,28.6325,143.347,-9.99,9,387.84,4,199,3,1015.8,27,28.7,2,34.492,2,38.63
Mirai,MR99K6,96,1999,10,16,10,29,28.5812,143.3594,-9.99,9,387.2,4,220,3,1015.7,27,28.75,2,34.486,2,38.72
Mirai,MR99K6,97,1999,10,16,11,8,28.4115,143.3996,-9.99,9,389.71,4,228,1.8,1015.8,27,28.87,2,34.525,2,39.01
Mirai,MR99K6,98,1999,10,16,11,20,28.3591,143.4114,-9.99,9,386.38,4,234,1.4,1015.9,26.9,28.53,2,34.494,2,38.24
Mirai,MR99K6,99,1999,10,16,11,26,28.3316,143.4172,367.8,2,-9.99,9,240,1.3,1016,27,28.77,2,34.494,2,38.77
Mirai,MR99K6,100,1999,10,16,11,32,28.306,143.4225,367.83,2,-9.99,9,246,1.3,1015.8,26.9,28.75,2,34.505,2,38.73
Mirai,MR99K6,101,1999,10,16,11,47,28.2459,143.4348,-9.99,9,385.95,4,221,0.7,1015.7,26.9,28.41,2,34.502,2,37.97
Mirai,MR99K6,102,1999,10,16,11,59,28.1953,143.4457,-9.99,9,383.17,4,179,1.4,1015.6,27,28.31,2,34.485,2,37.76
Mirai,MR99K6,103,1999,10,16,12,38,28.0286,143.4849,-9.99,9,383.78,4,149,1.4,1015.7,27,28.51,2,34.482,2,38.2
Mirai,MR99K6,104,1999,10,16,12,50,27.9763,143.4917,-9.99,9,386.16,4,143,1.7,1015.5,26.9,28.59,2,34.527,2,38.38
Mirai,MR99K6,105,1999,10,16,12,56,27.9485,143.4941,-9.99,9,-9.99,9,147,1.4,1015.6,26.9,28.41,2,34.549,2,37.97
Mirai,MR99K6,106,1999,10,16,13,2,27.9223,143.4962,367.11,2,-9.99,9,148,1.4,1015.6,26.9,28.36,2,34.516,2,37.87
Mirai,MR99K6,107,1999,10,16,13,17,27.8606,143.5011,-9.99,9,384.33,4,141,1.4,1015.4,26.9,28.36,2,34.479,2,37.86
Mirai,MR99K6,108,1999,10,16,13,29,27.8088,143.5052,-9.99,9,384.06,4,96,1.1,1015.3,27,28.32,2,34.526,2,37.78
Mirai,MR99K6,109,1999,10,16,14,8,27.6378,143.5167,-9.99,9,379.03,4,112,2.6,1015.5,27.1,28.59,2,34.499,2,38.36
Mirai,MR99K6,110,1999,10,16,14,20,27.5864,143.5205,-9.99,9,380.13,4,106,2.4,1015.4,27.2,28.63,2,34.465,2,38.46
Mirai,MR99K6,111,1999,10,16,14,26,27.5594,143.5226,366,2,-9.99,9,100,2.4,1015.3,27.2,28.56,2,34.418,2,38.31
Mirai,MR99K6,112,1999,10,16,14,32,27.5339,143.525,365.88,2,-9.99,9,101,2.5,1015.2,27.2,28.61,2,34.405,2,38.42
Mirai,MR99K6,113,1999,10,16,14,47,27.4733,143.5305,-9.99,9,370.48,4,111,2.8,1015.2,27.2,28.65,2,34.458,2,38.5
Mirai,MR99K6,114,1999,10,16,14,59,27.4216,143.5348,-9.99,9,369.85,4,107,2.6,1015,27.2,28.65,2,34.493,2,38.5
Mirai,MR99K6,115,1999,10,16,15,38,27.2533,143.5454,-9.99,9,368.21,4,112,2.8,1014.6,27.3,28.74,2,34.51,2,38.71
Mirai,MR99K6,116,1999,10,16,15,50,27.2024,143.5467,-9.99,9,367.97,4,103,2.9,1014.3,27.3,28.76,2,34.536,2,38.74
Mirai,MR99K6,117,1999,10,16,15,56,27.1756,143.5473,365.16,2,-9.99,9,109,2.8,1014.4,27.3,28.75,2,34.533,2,38.72
Mirai,MR99K6,118,1999,10,16,16,2,27.15,143.548,365.12,2,-9.99,9,114,2.9,1014.3,27.2,28.75,2,34.526,2,38.74
Mirai,MR99K6,119,1999,10,16,16,17,27.0898,143.5533,-9.99,9,368.86,4,116,4.2,1014.4,27.3,28.73,2,34.535,2,38.68
Mirai,MR99K6,120,1999,10,16,16,29,27.039,143.5583,-9.99,9,368.57,4,112,4.3,1014.2,27.2,28.74,2,34.54,2,38.72
Mirai,MR99K6,121,1999,10,16,17,8,26.8726,143.5737,-9.99,9,370.68,4,80,3.7,1013.7,27,28.76,2,34.525,2,38.75
Mirai,MR99K6,122,1999,10,16,17,20,26.8213,143.5785,-9.99,9,369.85,4,79,4.2,1013.7,27.1,28.66,2,34.524,2,38.54
Mirai,MR99K6,123,1999,10,16,17,26,26.7941,143.5806,365.36,2,-9.99,9,85,4.6,1013.7,27.1,28.63,2,34.524,2,38.47
Mirai,MR99K6,124,1999,10,16,17,32,26.7683,143.5824,365.37,2,-9.99,9,90,5,1013.7,27.1,28.63,2,34.524,2,38.46
Mirai,MR99K6,125,1999,10,16,17,47,26.7075,143.5865,-9.99,9,368.27,4,91,5.7,1013.6,27.2,28.61,2,34.52,2,38.41
Mirai,MR99K6,126,1999,10,16,17,59,26.6558,143.5896,-9.99,9,368.52,4,86,5.9,1013.4,27.2,28.64,2,34.523,2,38.48
Mirai,MR99K6,127,1999,10,16,18,38,26.4885,143.6004,-9.99,9,368.28,4,84,6.9,1013.4,27.5,28.6,2,34.521,2,38.38
Mirai,MR99K6,128,1999,10,16,18,50,26.4374,143.6045,-9.99,9,366.4,4,80,7.8,1013.5,27.3,28.61,2,34.445,2,38.42
Mirai,MR99K6,129,1999,10,16,18,56,26.4102,143.6069,366.28,2,-9.99,9,117,6,1013.8,25.9,28.67,2,34.423,2,38.55
Mirai,MR99K6,130,1999,10,16,19,2,26.3845,143.6091,366.3,2,-9.99,9,166,5.7,1013.7,25.5,28.63,2,34.407,2,38.46
Mirai,MR99K6,131,1999,10,16,19,17,26.3247,143.615,-9.99,9,363.78,4,128,5.4,1013.5,25,28.48,2,34.26,2,38.12
Mirai,MR99K6,132,1999,10,16,19,29,26.2738,143.6203,-9.99,9,365.02,4,119,5,1013.4,25.6,28.42,2,34.383,2,38
Mirai,MR99K6,133,1999,10,16,20,8,26.1049,143.635,-9.99,9,370.74,4,144,5.5,1014.1,25.2,28.7,2,34.511,2,38.62
Mirai,MR99K6,134,1999,10,16,20,20,26.0528,143.6406,-9.99,9,369.63,4,134,6.3,1013.9,25.8,28.72,2,34.512,2,38.67
Mirai,MR99K6,135,1999,10,16,20,26,26.0255,143.6438,366.32,2,-9.99,9,128,9.2,1014,26.1,28.74,2,34.505,2,38.72
Mirai,MR99K6,136,1999,10,16,20,32,25.9998,143.6466,366.39,2,-9.99,9,123,11.2,1014,26.3,28.7,2,34.473,2,38.63
Mirai,MR99K6,137,1999,10,16,20,47,25.9386,143.6532,-9.99,9,363.69,4,121,11.1,1014,26,28.77,2,34.421,2,38.76
Mirai,MR99K6,138,1999,10,16,20,59,25.8865,143.6584,-9.99,9,363.66,4,112,12.5,1014.4,26.1,28.77,2,34.425,2,38.77
Mirai,MR99K6,139,1999,10,16,21,38,25.7158,143.6686,-9.99,9,360.04,4,98,10.3,1013.9,25.5,28.88,2,34.457,2,39.03
Mirai,MR99K6,140,1999,10,16,21,50,25.664,143.6717,-9.99,9,359.28,4,104,9.2,1013.9,25.4,28.88,2,34.433,2,39.03
Mirai,MR99K6,141,1999,10,16,21,56,25.6363,143.6734,366.11,2,-9.99,9,106,9,1013.8,25.2,28.89,2,34.444,2,39.04
Mirai,MR99K6,142,1999,10,16,22,2,25.6102,143.6751,366.08,2,-9.99,9,106,8.4,1013.8,25.2,28.85,2,34.447,2,38.96
Mirai,MR99K6,143,1999,10,16,22,17,25.5486,143.6793,-9.99,9,357.31,4,106,6.8,1013.6,25.4,28.78,2,34.431,2,38.8
Mirai,MR99K6,144,1999,10,16,22,29,25.4964,143.6833,-9.99,9,357.25,4,109,5.8,1013.7,26.1,28.82,2,34.455,2,38.88
Mirai,MR99K6,145,1999,10,16,23,8,25.3257,143.6987,-9.99,9,356.93,4,117,4.7,1014.2,27,28.85,2,34.53,2,38.94
Mirai,MR99K6,146,1999,10,16,23,20,25.2733,143.7027,-9.99,9,357.22,4,110,3.9,1014.4,27.2,28.91,2,34.534,2,39.08
Mirai,MR99K6,147,1999,10,16,23,26,25.2454,143.7046,366.11,2,-9.99,9,116,4.2,1014.3,27.3,28.89,2,34.542,2,39.06
Mirai,MR99K6,148,1999,10,16,23,32,25.2191,143.7062,366.13,2,-9.99,9,116,4.6,1014.3,27.3,28.87,2,34.533,2,39.01
Mirai,MR99K6,149,1999,10,16,23,47,25.1565,143.71,-9.99,9,356.14,4,122,5.6,1014.5,27.4,28.85,2,34.486,2,38.95
Mirai,MR99K6,150,1999,10,16,23,59,25.1031,143.7124,-9.99,9,355.6,4,126,6,1014.4,27.4,28.86,2,34.455,2,38.98
Mirai,MR99K6,151,1999,10,17,0,38,24.9284,143.7211,-9.99,9,355.95,4,126,4.8,1014.3,28.3,29.01,2,34.492,2,39.31
Mirai,MR99K6,152,1999,10,17,0,50,24.8751,143.7242,-9.99,9,358.13,4,139,4,1014.4,28.3,29.05,2,34.587,2,39.4
Mirai,MR99K6,153,1999,10,17,0,56,24.8468,143.7264,366.38,2,-9.99,9,149,3.3,1014.4,28.3,29.07,2,34.602,2,39.44
Mirai,MR99K6,154,1999,10,17,1,2,24.8203,143.7287,366.44,2,-9.99,9,134,2.9,1014.1,28.1,29.07,2,34.607,2,39.45
Mirai,MR99K6,155,1999,10,17,1,17,24.7576,143.7343,-9.99,9,357.83,4,126,4.2,1014.2,28.3,29.05,2,34.586,2,39.41
Mirai,MR99K6,156,1999,10,17,1,29,24.7038,143.7385,-9.99,9,358.02,4,118,3.4,1013.9,28.5,29.06,2,34.552,2,39.43
Mirai,MR99K6,157,1999,10,17,2,8,24.5272,143.7507,-9.99,9,358.08,4,96,2.3,1013.4,28.9,28.95,2,34.462,2,39.19
Mirai,MR99K6,158,1999,10,17,2,20,24.4733,143.7558,-9.99,9,359.34,4,93,3.3,1013.4,28.9,29.04,2,34.502,2,39.38
Mirai,MR99K6,159,1999,10,17,2,26,24.4448,143.7589,366.2,2,-9.99,9,95,4.2,1013.4,28.9,29.02,2,34.51,2,39.35
Mirai,MR99K6,160,1999,10,17,2,32,24.4176,143.7617,366.15,2,-9.99,9,98,4,1013.4,29,29,2,34.491,2,39.3
Mirai,MR99K6,161,1999,10,17,2,47,24.3533,143.7683,-9.99,9,360.97,4,98,5.5,1013.3,28.7,28.93,2,34.478,2,39.13
Mirai,MR99K6,162,1999,10,17,2,59,24.2989,143.774,-9.99,9,360.9,4,94,5.1,1013.1,28.8,28.92,2,34.486,2,39.12
Mirai,MR99K6,163,1999,10,17,3,38,24.1205,143.7828,-9.99,9,362.39,4,94,4.8,1012.5,28.7,29.04,2,34.473,2,39.38
Mirai,MR99K6,164,1999,10,17,3,50,24.0655,143.7859,-9.99,9,364.23,4,98,5.1,1012.5,28.8,29.08,2,34.465,2,39.47
Mirai,MR99K6,165,1999,10,17,3,56,24.0363,143.7872,365.83,2,-9.99,9,104,5,1012.4,28.8,29.05,2,34.452,2,39.42
Mirai,MR99K6,166,1999,10,17,4,2,24.0087,143.7888,365.83,2,-9.99,9,110,5,1012.3,28.8,29.05,2,34.446,2,39.4
Mirai,MR99K6,167,1999,10,17,4,17,23.9441,143.7926,-9.99,9,360.62,4,118,5.3,1012.2,28.8,28.99,2,34.416,2,39.28
Mirai,MR99K6,168,1999,10,17,4,29,23.8897,143.796,-9.99,9,360.31,4,116,5.6,1012,28.7,28.98,2,34.437,2,39.25
Mirai,MR99K6,169,1999,10,17,5,8,23.7123,143.8083,-9.99,9,370.93,4,123,2.9,1011.9,28.9,29.13,2,34.546,2,39.58
Mirai,MR99K6,170,1999,10,17,5,20,23.6588,143.8127,-9.99,9,369.5,4,129,3,1012,29,29.22,2,34.538,2,39.8
Mirai,MR99K6,171,1999,10,17,5,26,23.6306,143.8151,365.66,2,-9.99,9,131,3.3,1012,29,29.39,2,34.641,2,40.18
Mirai,MR99K6,172,1999,10,17,5,32,23.6038,143.8172,365.63,2,-9.99,9,131,3.3,1012.2,29,29.36,2,34.654,2,40.12
Mirai,MR99K6,173,1999,10,17,5,47,23.5401,143.8217,-9.99,9,367.69,4,140,3.8,1012.1,28.9,29.3,2,34.615,2,39.98
Mirai,MR99K6,174,1999,10,17,5,59,23.4862,143.8257,-9.99,9,372.92,4,143,3.4,1012.2,29,29.44,2,34.692,2,40.31
Mirai,MR99K6,175,1999,10,17,6,38,23.3138,143.8412,-9.99,9,379.92,4,133,4.4,1012.5,28.7,29.47,2,34.789,2,40.36
Mirai,MR99K6,176,1999,10,17,6,50,23.2623,143.846,-9.99,9,376.1,4,143,5.1,1012.4,28.4,29.28,2,34.768,2,39.93
Mirai,MR99K6,177,1999,10,17,6,56,23.2352,143.849,365.73,2,-9.99,9,142,5.4,1012.9,28.3,29.26,2,34.796,2,39.9
Mirai,MR99K6,178,1999,10,17,7,2,23.2096,143.8521,365.74,2,-9.99,9,141,5.8,1012.4,28.2,29.27,2,34.807,2,39.91
Mirai,MR99K6,179,1999,10,17,7,17,23.1482,143.859,-9.99,9,380.55,4,138,5.5,1012.3,28.2,29.28,2,34.797,2,39.93
Mirai,MR99K6,180,1999,10,17,7,29,23.0956,143.8652,-9.99,9,378.38,4,141,5.3,1012.3,28.3,29.17,2,34.755,2,39.69
Mirai,MR99K6,287,1999,10,20,10,8,13.0921,143.8123,-9.99,9,380.83,2,70,4.4,1010.1,28.5,29.87,2,34.566,2,41.31
Mirai,MR99K6,288,1999,10,20,10,20,13.0712,143.7627,-9.99,9,381.39,2,33,4.3,1010.2,27.8,29.89,2,34.567,2,41.36
Mirai,MR99K6,289,1999,10,20,10,26,13.0601,143.7365,365.12,2,-9.99,9,33,4.5,1010.1,27.7,29.85,2,34.571,2,41.26
Mirai,MR99K6,290,1999,10,20,10,32,13.0493,143.7117,365.22,2,-9.99,9,38,4.5,1010.2,27.7,29.83,2,34.548,2,41.21
Mirai,MR99K6,291,1999,10,20,10,47,13.0233,143.6533,-9.99,9,380.93,2,63,4.9,1010.3,28.3,29.86,2,34.538,2,41.3
Mirai,MR99K6,292,1999,10,20,10,59,13.0016,143.603,-9.99,9,376.58,2,76,4.4,1010.3,28.4,29.68,2,34.488,2,40.86
Mirai,MR99K6,293,1999,10,20,11,38,12.9307,143.4346,-9.99,9,378.49,2,74,3.6,1010.5,28.5,29.73,2,34.552,2,40.99
Mirai,MR99K6,294,1999,10,20,11,50,12.9093,143.3838,-9.99,9,379.68,2,71,3.6,1010.6,28.5,29.83,2,34.556,2,41.22
Mirai,MR99K6,295,1999,10,20,11,56,12.8978,143.3569,365.65,2,-9.99,9,75,3.8,1010.7,28.6,29.79,2,34.559,2,41.12
Mirai,MR99K6,296,1999,10,20,12,2,12.8871,143.3315,365.62,2,-9.99,9,80,3.7,1010.6,28.5,29.85,2,34.538,2,41.27
Mirai,MR99K6,297,1999,10,20,12,17,12.8606,143.2732,-9.99,9,378.84,2,79,3.2,1010.7,28.3,29.82,2,34.556,2,41.2
Mirai,MR99K6,298,1999,10,20,12,29,12.8374,143.2248,-9.99,9,377.38,2,69,3.6,1010.7,28.3,29.76,2,34.54,2,41.05
Mirai,MR99K6,299,1999,10,20,13,8,12.7589,143.0679,-9.99,9,375.59,2,77,4.5,1010.3,28.3,29.6,2,34.421,2,40.68
Mirai,MR99K6,300,1999,10,20,13,20,12.7369,143.0187,-9.99,9,376.2,2,82,4.4,1010.1,28.3,29.62,2,34.451,2,40.72
Mirai,MR99K6,301,1999,10,20,13,26,12.7252,142.9929,365.58,2,-9.99,9,90,4.3,1010.1,28.4,29.61,2,34.464,2,40.71
Mirai,MR99K6,302,1999,10,20,13,32,12.7141,142.9684,365.66,2,-9.99,9,89,4.4,1010.2,28.5,29.62,2,34.463,2,40.72
Mirai,MR99K6,303,1999,10,20,13,47,12.6882,142.911,-9.99,9,377.82,2,69,4.2,1010.1,28.2,29.66,2,34.482,2,40.82
Mirai,MR99K6,304,1999,10,20,13,59,12.666,142.8626,-9.99,9,378.7,2,79,4,1009.9,28.2,29.67,2,34.491,2,40.85
Mirai,MR99K6,305,1999,10,20,14,38,12.5929,142.7031,-9.99,9,379,2,91,3.7,1009.4,28.3,29.74,2,34.495,2,41.02
Mirai,MR99K6,306,1999,10,20,14,50,12.5703,142.6539,-9.99,9,380.17,2,97,3.7,1009.4,28.3,29.78,2,34.503,2,41.09
Mirai,MR99K6,307,1999,10,20,14,56,12.5582,142.6278,365.73,2,-9.99,9,103,3.4,1009.4,28.3,29.75,2,34.496,2,41.03
Mirai,MR99K6,308,1999,10,20,15,2,12.5467,142.6029,365.68,2,-9.99,9,102,3.4,1009.2,28.3,29.78,2,34.484,2,41.1
Mirai,MR99K6,309,1999,10,20,15,17,12.5194,142.5442,-9.99,9,380.02,2,107,3.7,1009.1,28.4,29.76,2,34.479,2,41.06
Mirai,MR99K6,310,1999,10,20,15,29,12.4969,142.4951,-9.99,9,382.23,2,111,3.5,1009.1,28.3,29.85,2,34.522,2,41.28
Mirai,MR99K6,311,1999,10,20,16,8,12.422,142.3336,-9.99,9,381.27,2,123,2.4,1008.7,28.3,29.81,2,34.532,2,41.18
Mirai,MR99K6,312,1999,10,20,16,20,12.3993,142.2836,-9.99,9,381.82,2,119,2,1008.6,28.3,29.83,2,34.534,2,41.21
Mirai,MR99K6,313,1999,10,20,16,26,12.3874,142.2575,365.8,2,-9.99,9,108,1.9,1008.5,28.2,29.8,2,34.527,2,41.15
Mirai,MR99K6,314,1999,10,20,16,32,12.3761,142.2328,365.79,2,-9.99,9,109,2.1,1008.6,28.2,29.79,2,34.524,2,41.13
Mirai,MR99K6,315,1999,10,20,16,47,12.3497,142.1746,-9.99,9,382.12,2,127,2.8,1008.5,28.2,29.84,2,34.538,2,41.24